www.pogodaiklimat.ru

Погода и климат >> Архив погоды >> Индонезия >> Маноквари


ПОГОДА в Маноквари

  • Прогноз погоды в Маноквари
  • Монитор погоды в Маноквари

АРХИВ ПОГОДЫ в Маноквари

Время (UTC), дата Ветер
(напр.,м/с)
 
Видим.   Явления Облачность Т
(С)
Тd
(С)
f
(%)
Тe
(С)
Тes
(С)
Комфортность P
(гПа)
Po
(гПа)
Тmin
(С)
Tmax
(С)
R
(мм)
R24
(мм)
S
(см)
03 10.06 Ю 2 500 м дождь 10/6 420 м
[Cu Sc Ac As]
+25.0 +24.3 96 +35 +37 очень
душно
1010.1 1009.7 33
06 10.06 штиль 0 3000 м дождь 10/6 420 м
[Cu Sc Ac As]
+25.3 +24.0 93 +35 +36 очень
душно
1008.2 1007.8 19
09 10.06 штиль 0 2000 м дождь 10/6 420 м
[Cu Sc Ac As]
+24.8 +23.9 95 +34 +34 очень
душно
1009.5 1009.1 11
12 10.06 З 2 5000 м слаб. дождь 10/6 420 м
[Cu Sc As op]
+24.2 +23.7 97 +33 +33 очень
душно
1011.2 1010.8 +25.4 19
15 10.06 штиль 0 5000 м {дождь} 10/5 420 м
[Cu Sc As op]
+24.1 +23.1 94 +32 +32 очень
душно
1010.3 1010.9 2
18 10.06 штиль 0 5000 м {дождь} 10/5 420 м
[Cu Sc As op]
+23.4 +22.7 96 +33 +33 очень
душно
1009.0 1008.6 2
21 10.06 штиль 0 10 км 10/4 420 м
[Cu hum As op Ci sp]
+23.2 +22.6 96 +32 +32 очень
душно
1009.5 1009.1
00 11.06 штиль 0 10 км 9/1 420 м
[Cu hum Ac trans Ci sp]
+26.6 +23.4 83 +36 +42 очень
душно
1011.2 1010.9 +23.0 82
03 11.06 В 3 10 км 5/3 420 м
[Cu hum Ac trans Ci sp]
+30.8 +24.5 69 +43 +53 опасность
перегрева
1009.7 1009.4
06 11.06 В 3 10 км 5/3 420 м
[Cu hum Ac trans Ci sp]
+30.8 +24.4 69 +43 +48 опасность
перегрева
1009.7 1007.5
09 11.06 штиль 0 10 км 6/4 420 м
[Cu med, cong Ac trans Ci sp]
+29.5 +24.3 74 +41 +41 опасность
перегрева
1008.8 1008.4
12 11.06 штиль 0 7000 м 6/4 420 м
[Cu med, cong Ac trans Ci sp]
+27.1 +24.6 86 +38 +38 очень
душно
1011.0 1010.6 +30.8
15 11.06 СЗ 2 7000 м 6/4 420 м
[Cu med, cong Ac trans Ci sp]
+26.0 +24.4 91 +36 +36 очень
душно
1010.9 1010.5
18 11.06 штиль 0 7000 м 6/4 420 м
[Cu med, cong Ac trans Ci sp]
+25.3 +24.2 94 +35 +35 очень
душно
1009.5 1009.1
21 11.06 штиль 0 10 км 8/4 420 м
[Cu med, cong Ac trans Ci sp]
+25.0 +24.0 94 +34 +34 очень
душно
1010.4 1010.1
00 12.06 штиль 0 10 км 10/3 420 м
[Cu hum Ac lent Ci ing]
+27.6 +24.7 84 +39 +43 очень
душно
1012.7 1012.4 +24.7
03 12.06 В 3 5000 м слаб. дождь {гроза} 10/6 420 м
[Cu Sc Ac As]
+26.3 +24.6 90 +37 +39 очень
душно
1012.0 1011.6 6
06 12.06 штиль 0 9000 м {дождь} 10/5 420 м
[Cu Sc Ac As Cs]
+28.3 +24.4 79 +40 +43 очень
душно
1009.6 1009.3 0.5
09 12.06 штиль 0 9000 м 10/3 450 м
[Cu hum As op Cs]
+27.8 +24.7 83 +39 +39 очень
душно
1010.1 1009.7
12 12.06 штиль 0 8000 м 10/4 420 м
[Cu med, cong Ac lent Ci sp]
+26.0 +24.2 90 +36 +36 очень
душно
1010.8 1010.4 +29.0
15 12.06 штиль 0 9000 м 6/3 420 м
[Cu hum Ac trans Ci sp]
+25.0 +23.5 91 +34 +34 очень
душно
1010.4 1010.0
18 12.06 штиль 0 8000 м 5/3 420 м
[Cu hum Ac trans Ci fib]
+24.0 +23.3 96 +32 +32 очень
душно
1008.0 1007.7
21 12.06 В 4 10 км 8/3 420 м
[Cu hum Ac trans Ci sp]
+27.1 +24.7 87 +39 +39 очень
душно
1008.4 1008.1
00 13.06 ЮВ 2 10 км 5/3 420 м
[Cu hum Ac trans Ci sp]
+29.4 +24.6 75 +42 +47 опасность
перегрева
1010.4 1010.1 +24.1 6
03 13.06 ЮВ 2 10 км 8/4 420 м
[Cu hum Ac trans Ci sp]
+31.0 +25.4 72 +45 +53 опасность
перегрева
1009.5 1009.2
06 13.06 В 4 10 км 4/4 450 м
[Cu med, cong Ac lent Ci fib]
+31.3 +25.9 73 +47 +51 опасность
перегрева
1007.3 1007.0
09 13.06 В 3 7000 м гроза без осадков 8/6 300 м
[Cb cap Ac trans Ci fib]
+29.0 +25.5 81 +43 +43 опасность
перегрева
1007.9 1007.9
12 13.06 штиль 0 7000 м 5/4 420 м
[Cu med, cong Ac trans Ci sp]
+28.3 +25.6 85 +42 +42 опасность
перегрева
1010.0 1009.6 +31.5
15 13.06 штиль 0 7000 м 6/4 420 м
[Cu med, cong Ac trans Ci sp]
+26.9 +25.2 90 +39 +39 очень
душно
1009.6 1009.3
18 13.06 штиль 0 7000 м 4/1 420 м
[Cu hum Ac trans Ci fib]
+26.0 +24.5 91 +36 +36 очень
душно
1007.9 1007.5
21 13.06 штиль 0 8000 м 4/1 420 м
[Cu hum Ac trans Ci fib]
+25.2 +24.0 93 +35 +35 очень
душно
1008.3 1007.9
00 14.06 СВ 2 10 км 4/3 420 м
[Cu hum Ac trans Ci fib]
+29.7 +24.2 72 +41 +47 опасность
перегрева
1009.8 1009.4 +25.2
03 14.06 В 4 10 км 5/4 420 м
[Cu med, cong Ac trans Ci fib]
+31.1 +25.4 72 +45 +53 опасность
перегрева
1008.6 1008.2
06 14.06 В 3 10 км 5/4 420 м
[Cu med, cong Ac lent Ci fib]
+31.8 +24.8 67 +45 +50 опасность
перегрева
1006.0 1005.6
09 14.06 штиль 0 10 км 8/4 420 м
[Cu med, cong Ac trans Ci sp]
+30.5 +24.8 72 +44 +44 опасность
перегрева
1007.3 1006.9
12 14.06 штиль 0 8000 м 6/3 450 м
[Cu hum Ac cuf Ci sp]
+27.7 +24.4 82 +39 +39 очень
душно
1009.1 1007.7 +32.2
15 14.06 штиль 0 5000 м слаб. дождь 9/6 450 м
[Cu Sc Ac As Cs]
+25.4 +23.9 91 +35 +35 очень
душно
1010.0 1009.6 6
18 14.06 штиль 0 8000 м слаб. дождь 10/3 420 м
[Cu Sc Ac As Cs]
+25.1 +24.2 95 +35 +35 очень
душно
1007.9 1007.6 2
21 14.06 штиль 0 8000 м 6/3 450 м
[Cu hum As op Cs]
+25.0 +24.0 94 +34 +34 очень
душно
1009.0 1008.6
00 15.06 штиль 0 10 км 10/4 420 м
[Cu med, cong Ac lent Ci sp]
+27.1 +24.6 86 +38 +42 очень
душно
1011.1 1010.7 +25.0 8
03 15.06 ЮВ 2 8000 м слаб. дождь 10/6 420 м
[Cu Sc Ac As Ci sp]
+28.3 +25.0 82 +41 +45 опасность
перегрева
1010.6 1010.3 9
06 15.06 штиль 0 6000 м в посл. час дождь 9/5 420 м
[Cu Sc Ac As Ci fib]
+27.4 +25.4 89 +40 +44 очень
душно
1007.7 1007.4 9
09 15.06 СЗ 2 10 км 8/4 420 м
[Cu hum Ac trans Ci fib]
+28.1 +25.6 86 +41 +41 опасность
перегрева
1008.7 1008.4
12 15.06 штиль 0 6000 м 6/4 420 м
[Cu med, cong Ac lent Ci sp]
+26.9 +23.8 83 +37 +37 очень
душно
1010.7 1010.3 +28.8
15 15.06 штиль 0 6000 м 6/3 420 м
[Cu med, cong Ac lent Ci sp]
+25.8 +23.9 89 +35 +35 очень
душно
1010.4 1010.0
18 15.06 штиль 0 6000 м 6/3 420 м
[Cu med, cong Ac lent Ci sp]
+25.4 +23.7 90 +35 +35 очень
душно
1008.7 1008.3
21 15.06 штиль 0 10 км 6/4 420 м
[Cu hum Ac trans Ci fib]
+25.4 +24.2 93 +35 +35 очень
душно
1009.2 1008.8
00 16.06 В 2 10 км 4/3 420 м
[Cu hum Ac trans Ci fib]
+28.9 +24.6 78 +41 +47 опасность
перегрева
1010.4 1010.1 +25.2 9
03 16.06 В 2 10 км 8/5 420 м
[Cu med, cong Ac trans Ci sp]
+30.7 +25.2 73 +45 +51 опасность
перегрева
1008.9 1008.6
06 16.06 ЮЗ 3 3000 м слаб. дождь {гроза} 9/6 400 м
[Cb cap Ac lent Ci sp]
+27.2 +25.0 88 +39 +41 очень
душно
1008.0 1007.7 8
09 16.06 З 3 5000 м {дождь} 9/5 420 м
[Cu Sc Ac lent Ci sp]
+26.9 +24.3 86 +38 +38 очень
душно
1009.0 1008.7 0.0
12 16.06 З 2 6000 м {дождь} 9/5 420 м
[Cu Sc Ac As Ci sp]
+26.2 +23.5 85 +36 +36 очень
душно
1011.0 1010.7 +31.1 0.0
15 16.06 штиль 0 6000 м 9/5 420 м
[Cu Sc Ac As Ci sp]
+25.6 +23.3 87 +34 +34 очень
душно
1010.1 1009.8
18 16.06 Ю 2 6000 м 9/5 420 м
[Cu Sc Ac As Ci sp]
+25.6 +23.5 88 +35 +35 очень
душно
1008.8 1008.5
21 16.06 СЗ 2 10 км 10/5 420 м
[Cu Sc Ac As]
+25.1 +23.9 93 +34 +34 очень
душно
1009.7 1009.3
00 17.06 штиль 0 7000 м в посл. час дождь 10/4 300 м
[Cu Sc Ac As Ci ing]
+26.0 +24.2 90 +36 +40 очень
душно
1011.3 1010.9 +24.8 0.1

 

Местоположение метеостанции Маноквари (Индонезия): широта -0.88 долгота 134.05 высота над уровнем моря 3 м.

В архиве по умолчанию представлена погода в Маноквари за последнюю неделю. Архивные данные за месяц целиком и за предыдущие месяцы, начиная с января 2011 года, Вы можете получить, выбрав интересующий диапазон дат из раскрывающегося списка и нажав кнопку "Ввод!".


*Определитесь, кто Вы:
робот инопланетянин человек

Внимание! Время в таблицах - всемирное. Для получения местного времени необходимо прибавить поправку, которая равна 9 ч.

Смотрите также архив погоды в соседних городах и на ближайших метеорологических станциях:

Погода в Биаке (Индонезия) (232 км)
Погода в Серуи (Индонезия) (266 км)
Погода в Факфаке (Индонезия) (302 км)
Погода в Каимана (Индонезия) (312 км)
Погода в Набире (Индонезия) (317 км)
Погода в Аэропорту Соронг-Джефман (Индонезия) (327 км)
Погода в Энаротали (Индонезия) (425 км)
Погода в Гесере (Индонезия) (483 км)
Погода в Сарми (Индонезия) (529 км)
Погода в Туале (Индонезия) (553 км)

Пояснения к столбцам:

Ветер - указаны скорость ветра в м/с - средняя за 10 мин, порывы в срок и между сроками (в фигурных скобках) и направление, откуда дует ветер: С - северный, СВ - северо-восточный, В - восточный, ЮВ - юго-восточный, Ю - южный, ЮЗ - юго-западный, З - западный, СЗ - северо-западный.
Видимость - горизонтальная дальность видимости в метрах или километрах. При видимости от 1 до 10 км при отсутствии осадков обычно наблюдается дымка, при ухудшении видимости до 1 км и менее - туман. В сухую погоду видимость может ухудшаться дымом, пылью или мглою.
Явления - указаны атмосферные явления, наблюдавшиеся в срок или в последний час перед сроком; фигурными скобками обозначены явления, наблюдавшиеся между сроками (за 1-3 часа до срока); квадратными скобками обозначены град или гололедные отложения с указанием их диаметра в мм.
Облачность - указаны через наклонную черту общая и нижняя облачность в баллах и высота нижней границы облаков в метрах; квадратными скобками обозначены формы облаков: Ci - перистые, Cs - перисто-слоистые, Cc - перисто-кучевые, Ac - высококучевые, As - высокослоистые, Sc - слоисто-кучевые, Ns - слоисто-дождевые, Cu - кучевые, Cb - кучево-дождевые. Подробнее классификацию облаков см. в Атласе облаков (PDF).
T - Температура воздуха - температура, измеренная на высоте 2 м над землей.
Td - Температура точки росы - температура, при понижении до которой содержащийся в воздухе водяной пар достигнет насыщения.
f - Относительная влажность воздуха - влажноcть воздуха, измеренная на высоте 2 м над землей.
Te - Эффективная температура - температура, которую ощущает одетый по сезону человек в тени. Характеристика душности погоды. При расчете учитывается влияние влажности воздуха и скорости ветра на теплоощущения человека.
Tes - Эффективная температура на солнце - температура, которую ощущает человек, с поправкой на солнечный нагрев. Характеристика знойности погоды. Зависит от высоты солнца над горизонтом, облачности и скорости ветра. Ночью, в пасмурную погоду, а также при ветре 12 м/с и более поправка равна нулю.
P - Атмосферное давление - приведенное к уровню моря атмосферное давление.
Po - Атмосферное давление - измеренное на уровне метеостанции атмосферное давление.
Tmin - Минимальная температура - минимум температуры воздуха на высоте 2 м над землей.
Tmax - Максимальная температура - максимум температуры воздуха на высоте 2 м над землей.
R - Количество осадков - Количество выпавших осадков за период времени, мм. При наведении курсора мыши на число - период времени, за который выпало указанное количество осадков.
R24 - Количество осадков - Количество выпавших осадков за 24 часа, мм.
S - Снежный покров - Высота снежного покрова, см. При наведении курсора мыши на число - состояние снежного покрова и степень покрытия местности в баллах.